IRIDE-MS2-HEO-12

导读

IRIDE-MS2-HEO-12(NORAD编号68984)是意大利IRIDE(灾害恢复倡议)星座中的一颗地球观测微型卫星,由意大利Argotec公司建造,属于HEO(Hawk for Earth Observation)系列卫星。该卫星于2026年5月由SpaceX猎鹰9号拼车任务发射入轨,IRIDE星座是意大利政府主导的国家级地球观测项目,获欧洲空间局支持,总投入超10亿欧元。HEO系列卫星支持星上数据处理,可降低传输延迟,提供最高3米以下空间分辨率数据,用于灾害监测、土地管理等领域,补充现有哥白尼服务能力。

Basic Information
目录编号:
68984
目录名称:
IRIDE-MS2-HEO-12
国际标识:
2026-100E
轨道中心:
EARTH
卫星名称:
IRIDE-MS2-HEO-12
卫星全名:
IRIDE-MS2-HEO-12
卫星状态:
在轨 (已飞行125 天)
发射日期:
2026-05-03 UTC
国别 :
意大利 (IT)
星等 :
--
Orbit Information
数据来源 国际轨道数据
星历时间: 2026-09-05T06:47:54+0800
11小时前
查看轨道信息
半长轴: 6973.507km
偏心率: 0.0002418
轨道倾角: 97.723°
近地点辐角 231.276°
升交点赤经 143.716°
平近点角 128.824°
近地点: 593.683km
远地点: 597.057km
周期: 96.591分钟
每日圈数: 14.908225
Detailed Information
使用方式:
暂无
2D Orbit Map
3D Orbit Map
Orbit Altitude Analysis Chart
Orbit Inclination Analysis Chart
Orbit Comprehensive Analysis Chart
View Comprehensive Chart
Conjunction Data List
Event ID Objects TCA Miss Dist (km) Collision Risk Probability Collision Risk Index (CRI) Action
CDM_260907-104701-688206-898422
2026-09-07T
10:47:56+0000
0.409 km
远距离
3.126647E-4 高风险 0.85
CDM_260905-060406-532206-898422
FFLY-2 (65322)
2026-09-05T
06:04:39+0000
1.168 km
极远距离
1.596772E-5 中风险 0.59
CDM_260906-170401-559306-898425
2026-09-06T
17:04:45+0000
2.943 km
极远距离
1.374392E-6 低风险 0.38
CDM_260905-112206-458306-898421
2026-09-05T
11:22:52+0000
2.932 km
极远距离
1.345135E-6 低风险 0.38